Theta_e
298 298 299 300 305 310 310 311 314 316 320 322 324 325 326 327 326 326 327 327 327 327 328 330 331 332 333 332 332 332 331 331 331 330 330 330 330 327 324 327 332 337 342 348 349 347 349 351 350 349 345 348 348 346 344 342 343 343 342 342 342 340 340 339 338 337 338 337 336 335 334 333 333 332 332 331 330 330 330 330 329 328 328 328 328
297 297 297 299 304 305 306 309 311 314 318 320 322 324 324 326 326 325 326 326 326 327 327 329 329 330 331 331 331 331 331 330 331 330 330 329 329 328 321 324 329 335 340 343 348 348 350 350 348 348 346 347 343 344 344 344 343 343 341 340 340 340 340 339 338 337 337 337 336 335 333 332 332 332 331 330 329 329 329 328 328 328 328 327 327
296 296 297 299 302 302 305 306 307 309 313 316 320 321 323 323 324 325 325 325 326 326 326 327 328 329 329 329 330 330 330 330 329 330 330 329 329 328 325 322 326 330 335 340 344 347 348 350 349 348 344 341 342 345 343 344 344 344 342 341 342 341 339 338 337 337 337 336 335 334 333 333 332 331 330 329 329 328 328 328 327 328 328 327 326
296 296 296 298 300 302 303 302 302 306 310 313 316 318 320 322 323 325 325 325 325 326 326 326 327 328 328 328 329 328 329 329 328 329 329 329 329 328 327 326 322 325 329 336 343 345 345 347 345 342 344 342 345 348 345 343 343 342 342 342 341 340 338 338 337 336 336 335 334 334 333 333 331 330 329 329 329 328 328 328 328 328 327 326 325
295 295 296 297 298 300 300 300 301 304 306 309 311 314 317 319 321 323 323 324 324 323 324 325 326 326 327 327 327 327 327 328 328 329 329 329 328 328 328 327 327 322 324 328 337 342 342 343 340 340 343 343 343 345 344 344 343 342 341 340 340 340 339 338 336 335 335 334 334 332 332 331 330 329 329 329 328 328 327 327 327 327 326 325 325
295 295 295 296 297 298 298 298 300 302 303 306 308 312 314 316 318 320 319 321 322 322 322 323 324 325 325 325 326 326 326 326 327 327 328 328 328 327 328 328 329 329 329 324 328 334 338 339 338 340 341 342 344 343 344 342 340 342 343 341 340 339 339 338 337 337 335 334 333 332 331 331 330 329 329 328 327 327 327 327 327 326 325 325 326
294 294 294 295 296 297 297 298 300 301 302 304 306 309 312 314 316 317 319 320 321 321 322 323 323 323 324 324 324 325 325 325 325 325 325 327 327 327 328 328 329 330 330 331 321 325 331 335 337 339 340 341 342 344 344 344 344 343 342 341 340 340 339 338 337 336 334 333 331 331 330 330 329 329 329 327 327 327 327 327 326 326 325 326 326
292 293 293 295 295 296 296 297 299 300 300 302 303 305 308 311 312 314 315 318 319 320 322 321 322 322 322 323 323 323 324 324 324 324 324 325 325 326 327 327 326 328 323 329 328 325 324 329 333 337 337 338 342 342 343 343 343 343 341 340 340 339 338 337 336 336 333 331 331 330 330 329 329 329 328 327 328 327 326 326 325 325 327 326 326
290 291 292 294 295 295 296 297 298 299 299 300 301 304 306 308 310 311 313 315 318 319 320 321 321 321 321 321 322 321 322 323 322 323 323 323 323 324 324 325 322 317 325 324 324 326 321 324 328 331 331 334 339 340 340 343 344 343 341 340 339 339 337 336 336 334 332 331 330 330 329 328 328 328 327 326 326 327 326 325 325 325 326 325 324
289 290 291 293 294 295 296 297 298 298 298 299 300 302 304 306 306 308 310 312 314 318 319 320 321 320 320 319 320 319 320 321 321 318 321 322 321 321 323 323 321 322 323 323 323 324 325 322 323 323 322 328 336 338 339 340 341 342 342 341 340 339 337 335 334 333 332 330 330 329 329 328 328 328 326 325 325 325 326 326 325 325 325 324 324
289 290 291 292 294 295 295 296 297 297 297 298 298 299 301 303 303 304 306 307 309 315 320 320 319 319 319 319 319 318 319 319 319 319 320 321 320 320 320 320 321 322 322 321 321 322 322 324 326 328 327 323 333 337 340 340 339 339 339 340 340 338 336 335 334 332 330 330 329 328 328 328 328 327 326 325 326 325 326 326 325 325 324 324 324
287 288 290 292 293 294 294 295 296 296 296 296 296 297 297 299 301 303 303 304 306 310 318 319 318 318 316 318 318 318 317 316 317 319 318 318 317 317 318 318 318 320 320 320 321 321 322 323 321 327 327 325 325 331 335 335 334 338 338 339 339 338 336 334 333 332 330 329 328 328 328 328 327 328 327 327 326 326 326 326 325 325 325 324 324
286 286 287 290 291 293 293 294 295 296 296 296 296 297 298 299 301 302 301 300 301 305 313 319 316 314 316 315 315 316 314 314 316 317 317 318 316 316 317 317 317 317 319 319 319 320 321 322 324 324 325 325 325 320 328 328 327 334 337 338 339 338 336 334 333 330 330 329 328 328 328 327 326 326 327 327 326 326 326 326 325 326 326 325 325
285 285 285 286 287 290 292 294 295 295 295 296 296 297 298 298 300 299 300 299 299 302 305 313 312 311 309 309 309 311 311 312 314 314 316 316 315 315 314 316 315 316 316 317 318 320 320 321 322 322 324 325 324 324 322 324 326 332 336 335 336 338 337 335 333 333 329 329 328 328 328 327 327 326 326 326 326 326 327 327 327 326 326 326 326
284 284 285 286 287 288 290 292 293 294 294 295 295 295 296 297 298 298 297 299 299 300 301 303 307 313 311 307 302 303 303 308 310 311 314 314 315 315 315 315 315 315 316 316 317 317 319 320 320 321 321 323 322 323 323 318 322 321 327 330 333 335 335 335 334 333 330 328 329 329 328 327 327 327 326 327 327 327 327 327 327 326 326 326 326
283 284 285 286 286 286 288 290 292 294 295 295 295 295 296 296 297 298 299 296 296 296 299 301 301 311 304 306 304 305 300 302 306 307 309 313 314 314 314 315 314 314 315 316 316 317 318 319 320 320 320 321 322 321 321 321 315 311 314 320 324 332 333 334 333 333 330 330 329 329 328 327 326 327 327 327 327 327 327 326 327 327 327 326 326
283 284 284 284 285 286 287 288 290 293 294 295 295 295 296 297 298 298 298 296 295 296 297 299 299 302 310 306 302 303 303 305 306 304 306 310 312 314 312 314 314 314 315 315 316 317 317 318 319 320 320 319 320 320 320 319 318 315 317 312 319 324 327 332 332 332 331 331 330 327 327 326 326 327 328 327 327 327 327 327 327 328 327 327 327
283 283 283 283 283 285 286 288 289 292 294 295 295 296 296 297 297 297 297 298 296 295 294 297 298 298 302 314 310 306 306 306 306 299 300 305 311 312 312 313 314 313 315 314 315 316 316 318 318 318 318 319 318 318 320 320 317 319 320 318 319 323 325 327 331 332 332 332 331 328 326 327 327 327 327 327 327 327 327 328 327 327 328 328 327
281 282 282 282 283 284 285 287 288 290 292 294 295 295 296 297 297 296 297 298 298 294 294 294 296 297 298 303 312 303 310 307 303 301 297 299 305 310 311 313 314 314 314 314 314 315 316 316 317 317 317 317 317 317 318 319 315 314 310 310 316 320 322 322 324 327 329 330 329 330 329 328 327 327 327 326 327 327 328 328 328 328 328 328 328
281 281 281 281 282 282 283 284 287 290 292 293 294 296 297 297 296 296 297 297 297 295 294 295 293 293 296 297 306 307 311 311 310 305 302 299 299 301 309 312 313 314 315 314 314 314 314 315 317 316 317 317 317 317 317 317 317 316 312 312 318 321 322 322 322 322 324 326 329 330 329 330 329 328 327 327 328 329 328 328 328 329 328 328 328
280 280 280 280 280 280 281 282 284 287 291 293 294 296 296 297 296 295 296 297 297 296 295 294 294 294 294 294 298 307 309 310 308 308 304 301 301 302 303 309 312 313 314 315 315 315 314 315 316 316 314 315 317 317 316 316 317 317 312 313 317 320 320 321 320 319 320 322 326 327 329 330 330 329 328 328 328 329 328 328 328 328 329 328 328
278 279 279 279 279 279 280 281 283 287 290 292 293 294 296 298 297 295 295 296 297 297 295 295 295 295 296 294 291 300 307 307 305 305 305 307 302 303 304 304 304 308 312 313 314 314 314 314 314 315 316 316 316 315 315 316 316 316 314 311 315 317 319 321 320 320 320 320 320 323 326 328 329 329 330 330 330 330 328 328 328 328 328 328 329
277 277 277 278 278 279 280 280 282 286 289 291 292 292 294 296 297 296 296 296 296 297 296 296 295 295 295 295 293 293 305 304 305 306 306 303 302 305 306 307 308 306 308 312 313 314 314 314 314 313 315 316 316 315 315 315 310 312 309 312 314 316 319 321 320 319 319 319 320 321 323 324 326 327 329 330 329 330 329 328 329 328 328 328 328
276 276 276 277 277 278 278 279 281 284 287 290 290 292 293 294 295 296 295 296 297 296 296 295 295 294 294 295 295 296 299 307 308 308 307 305 304 303 305 307 308 302 305 310 312 312 313 313 313 312 314 315 316 316 315 315 314 306 309 309 313 315 318 319 318 318 318 318 318 319 322 323 323 324 326 328 329 330 330 329 328 328 329 329 328
274 274 275 276 276 276 277 278 280 284 285 287 290 291 292 293 294 295 296 295 295 295 294 294 295 293 293 294 296 296 296 305 310 308 307 307 305 303 304 307 304 299 296 306 301 310 313 312 312 312 312 313 315 315 315 315 314 306 307 307 311 313 315 317 317 318 317 317 316 318 321 322 322 324 327 328 328 329 330 329 329 330 330 329 329
274 274 275 275 275 276 277 277 279 279 281 285 288 289 290 291 293 294 294 295 294 294 294 294 295 295 295 293 294 295 296 300 309 308 306 305 304 304 303 304 304 300 295 301 299 306 302 311 312 312 310 312 313 314 314 315 313 304 306 310 311 311 314 317 318 318 317 316 316 316 316 318 321 323 324 327 328 328 329 329 329 330 329 329 329
274 274 275 275 275 275 276 276 277 278 281 284 286 287 287 288 291 293 293 293 293 293 293 294 294 294 294 294 294 295 297 298 308 307 308 307 307 306 304 301 298 299 298 299 302 307 306 306 311 310 307 309 311 312 313 312 310 304 304 313 313 308 312 315 318 317 316 315 315 315 316 316 318 322 322 322 324 326 328 329 329 328 329 328 328
274 274 274 274 274 274 275 275 276 278 279 281 284 285 286 286 289 292 292 293 292 292 293 293 294 294 294 295 294 295 297 298 304 308 308 308 308 308 307 305 300 296 299 299 301 304 305 303 300 308 306 306 308 309 308 309 312 303 303 313 313 311 310 313 316 317 317 316 315 315 315 315 316 317 319 319 319 320 321 322 323 323 323 323 324
273 274 274 274 274 274 274 275 276 277 278 280 282 283 285 285 287 289 291 292 292 291 292 293 294 294 295 295 295 296 297 299 303 307 308 308 308 308 309 306 304 300 297 297 300 302 301 307 303 301 307 307 306 308 309 309 307 304 310 312 313 313 310 312 315 316 317 316 315 315 314 314 315 316 316 316 317 318 320 321 321 321 322 322 323
274 274 274 273 273 274 273 274 275 276 278 279 280 282 284 285 286 288 291 292 291 291 291 292 293 294 295 295 296 296 298 299 301 307 307 307 307 308 308 308 307 303 301 299 300 303 302 303 305 300 295 304 304 306 308 307 302 306 309 310 312 313 308 309 313 315 315 315 315 315 314 313 314 314 314 315 316 318 320 319 319 320 321 321 324
273 273 272 272 272 273 273 274 275 276 276 277 280 282 283 284 285 287 290 291 291 290 291 292 293 293 294 295 296 297 298 299 301 306 306 307 307 307 308 309 308 307 305 304 299 299 304 302 302 299 301 299 302 304 306 305 303 307 308 309 310 308 305 308 310 313 313 313 314 314 313 313 313 313 313 314 315 317 319 319 318 319 320 320 322
273 272 272 272 272 272 273 273 274 274 275 277 279 280 281 282 284 286 288 290 290 290 290 291 292 292 293 293 294 296 298 299 301 305 306 306 307 307 307 308 308 308 308 306 302 300 304 306 303 301 301 300 299 302 301 302 303 301 306 307 309 303 308 312 308 310 311 312 313 313 313 313 313 313 314 313 316 317 317 316 317 318 318 318 320
272 272 272 272 272 272 272 273 274 274 274 276 277 279 280 281 283 284 287 289 289 289 290 290 291 291 292 292 293 295 297 298 301 305 305 306 307 307 307 307 307 308 307 306 303 299 294 297 302 302 302 301 299 302 300 300 300 302 303 304 306 306 309 312 312 306 309 310 311 312 313 313 313 313 313 313 314 315 315 316 316 315 316 318 319
272 272 271 272 272 272 272 272 273 273 273 273 274 276 278 279 280 282 285 288 289 289 289 289 290 291 292 292 293 295 296 297 300 304 305 305 306 307 306 306 304 305 307 306 303 299 296 294 297 299 299 302 300 300 301 299 300 298 300 301 303 304 307 307 310 310 307 309 310 311 311 311 312 313 312 312 313 313 314 315 314 313 314 316 316
272 272 271 272 272 272 272 272 272 272 272 272 273 275 277 278 278 280 282 285 287 288 288 288 289 290 290 291 292 294 296 296 300 304 305 305 306 306 306 306 305 306 305 305 302 299 296 295 296 296 297 299 301 299 301 302 300 299 299 298 299 301 302 300 305 307 305 307 309 310 310 310 311 311 311 311 311 311 312 313 312 311 313 314 314
271 271 272 271 271 271 271 271 271 271 272 272 273 275 276 277 278 279 280 282 286 288 288 288 289 289 289 290 291 293 294 295 299 304 304 305 305 305 306 306 306 304 302 301 303 301 298 294 294 297 298 299 296 298 300 299 297 296 298 295 293 296 295 297 300 301 304 306 307 308 308 309 309 310 310 309 310 311 311 311 310 311 311 311 311
271 271 271 271 271 271 271 271 271 272 272 272 272 273 274 276 277 278 279 280 283 286 288 288 289 289 289 289 291 292 294 294 299 303 304 303 304 304 305 305 305 304 302 301 301 301 298 296 294 293 297 297 293 295 295 295 293 293 292 293 294 295 295 294 294 297 300 304 304 304 305 306 307 309 310 309 310 310 310 310 310 310 309 310 309
270 270 269 270 270 270 270 271 271 271 271 271 271 271 272 273 275 277 279 280 281 284 287 288 288 289 289 290 291 293 293 294 298 303 303 303 304 303 303 304 304 303 300 299 300 300 299 297 295 292 294 293 291 292 294 297 294 292 291 289 290 291 292 292 293 294 296 300 302 303 302 303 304 308 309 309 309 309 310 310 309 308 307 306 307
269 268 268 268 269 269 269 269 269 269 270 270 271 271 272 273 274 275 277 278 281 285 287 288 288 289 289 290 290 292 293 295 298 303 303 303 304 303 303 304 303 302 299 298 298 298 298 295 295 295 294 294 295 293 292 295 296 296 293 291 292 290 292 295 294 292 295 297 299 301 302 301 302 305 306 307 308 309 308 309 308 307 305 304 305
267 267 267 267 268 268 268 269 269 270 270 270 270 271 271 272 273 274 276 277 279 281 286 287 288 288 288 289 289 291 292 295 297 303 303 303 304 303 304 304 302 300 298 297 297 296 295 295 294 294 294 293 291 290 291 292 293 291 294 295 294 292 292 292 294 295 294 297 297 296 299 301 302 304 305 306 306 307 307 306 305 304 302 304 304
267 267 267 267 267 267 268 268 269 269 269 270 270 271 271 272 274 275 276 277 279 281 284 286 287 288 288 288 289 289 291 290 291 295 300 301 304 301 303 303 301 300 297 296 296 296 295 295 294 294 294 293 292 290 291 293 295 295 294 295 294 292 292 293 292 293 296 297 294 294 295 297 298 299 301 302 303 304 304 304 304 300 300 303 304
265 266 266 267 267 267 267 268 269 269 270 271 273 276 277 275 275 276 277 278 279 280 281 283 285 287 287 287 288 288 288 289 290 292 296 299 300 303 303 302 299 298 296 296 296 296 295 294 293 293 292 293 292 292 293 295 297 296 293 294 293 291 292 292 291 289 289 295 295 295 294 295 298 297 299 301 302 301 303 303 304 302 301 304 305
265 265 266 266 267 267 267 268 268 269 269 270 274 276 277 278 277 278 278 278 280 281 282 283 284 285 286 287 287 288 288 289 292 293 295 298 298 299 299 299 299 298 296 296 296 295 294 294 294 294 294 293 293 294 295 295 295 295 295 295 294 291 291 291 291 290 289 294 295 294 293 291 295 297 297 299 299 299 300 302 302 301 302 304 304
264 265 265 266 266 267 267 267 268 268 268 272 275 276 276 278 278 276 278 279 279 279 280 282 284 285 285 286 287 288 289 290 291 295 295 296 297 298 298 298 298 298 298 297 296 295 294 294 293 294 294 294 293 294 295 295 294 294 295 294 293 292 291 292 292 291 292 293 295 294 293 290 291 297 297 298 298 299 300 302 302 302 303 304 304
264 264 265 266 266 266 267 267 267 268 268 272 274 275 276 277 278 279 277 278 279 280 281 282 284 285 286 286 286 287 288 288 289 293 298 298 296 297 297 297 297 297 298 298 298 296 296 295 294 294 295 296 294 293 295 296 296 293 293 293 292 293 292 293 292 292 291 295 295 294 293 291 292 295 296 296 296 298 299 301 302 302 303 303 303
264 264 265 265 266 266 267 267 267 268 268 272 274 275 276 277 278 279 278 279 279 280 281 281 283 285 286 286 286 286 287 288 289 293 298 299 299 298 298 298 299 297 297 297 296 296 296 296 295 294 296 297 295 296 295 295 294 293 293 293 292 292 292 293 292 293 293 296 296 294 293 291 290 295 296 295 291 293 295 299 301 302 303 303 303
263 264 264 265 265 266 267 267 267 268 269 273 275 275 276 277 279 280 278 279 280 280 280 281 282 284 286 286 286 286 287 288 289 291 295 299 297 296 295 296 298 298 299 299 299 299 298 300 298 298 298 298 298 297 296 296 295 295 295 294 293 293 291 290 290 291 292 295 296 295 293 292 289 294 295 292 290 291 289 297 301 301 302 303 302
264 265 265 266 266 266 267 267 267 267 268 274 275 275 276 277 278 276 278 279 279 279 280 281 282 284 286 286 286 286 287 287 289 291 293 297 296 294 294 294 296 298 299 298 298 298 300 301 300 300 300 299 298 296 295 295 296 295 294 292 291 291 292 292 291 290 292 292 291 295 292 291 289 293 292 288 289 290 288 290 299 301 302 302 302
264 265 265 266 266 266 267 267 267 268 268 272 275 275 276 277 277 276 277 279 279 279 280 281 283 285 286 286 286 286 287 287 289 291 293 296 295 294 294 293 294 295 296 299 297 297 298 298 298 299 299 298 298 297 297 297 295 294 293 292 291 293 293 291 290 290 291 292 292 291 291 290 288 291 288 287 288 289 288 289 292 299 300 301 301
264 265 266 266 267 267 267 267 268 268 268 271 275 276 276 277 277 276 278 278 279 279 280 281 282 284 286 287 287 286 286 287 289 291 293 294 295 294 294 293 293 293 295 297 297 297 296 297 297 297 297 297 297 297 297 297 296 294 294 293 293 294 293 293 290 290 290 291 292 290 291 290 289 289 286 285 287 287 288 288 290 293 299 299 300
265 266 266 266 267 267 268 268 271 270 269 271 275 276 277 278 276 275 277 278 278 278 278 280 282 284 285 286 287 287 287 288 290 291 292 294 295 294 295 294 293 293 295 296 294 293 292 291 293 295 294 295 295 295 294 295 294 294 296 295 294 295 294 294 291 288 287 288 292 290 292 287 289 289 288 285 285 284 283 287 288 290 293 296 298
Wind_Speed
11 11 11 11 11 10 11 11 12 12 12 12 11 11 12 12 12 12 11 11 10 11 10 11 10 11 11 11 12 12 12 12 12 13 12 12 12 15 22 22 23 23 25 26 28 30 31 31 32 35 34 34 31 30 30 28 31 31 31 30 29 31 31 28 28 27 25 25 26 25 25 24 23 22 22 22 22 21 21 20 20 20 20 19 19
10 10 11 13 11 11 11 11 11 11 12 12 11 11 12 12 13 13 14 12 11 12 10 11 12 12 11 11 12 12 12 12 13 13 12 12 12 12 18 18 18 21 24 25 26 30 33 34 30 31 32 27 28 30 32 33 31 31 31 32 30 30 31 29 28 28 25 26 26 25 25 25 24 24 23 23 22 22 22 21 20 20 21 21 20
10 10 9 10 11 11 10 10 11 11 12 13 12 12 12 12 13 12 9 10 11 11 11 12 11 12 12 12 11 10 11 12 12 13 13 12 12 11 13 22 22 20 21 23 26 28 29 32 33 33 27 28 30 32 34 34 32 30 32 33 33 33 32 29 29 28 24 24 24 24 24 24 25 25 24 23 23 22 22 22 22 21 21 20 19
10 10 11 11 9 10 11 10 10 11 11 12 14 14 13 13 14 14 13 13 12 11 11 11 12 12 11 12 11 10 11 11 11 13 14 14 13 12 11 17 23 22 23 23 25 25 29 26 25 27 28 29 33 36 37 35 35 32 31 29 30 32 32 31 29 26 24 23 24 25 24 24 26 26 24 24 24 23 23 22 22 22 21 21 20
11 12 11 11 11 10 9 10 10 10 12 14 16 14 13 13 13 13 13 12 12 12 10 11 12 12 11 12 11 12 11 11 12 14 15 15 13 11 11 13 15 21 24 24 25 23 24 23 23 28 33 33 31 32 33 33 33 34 35 33 33 32 32 30 29 27 26 26 25 25 24 25 26 25 25 24 24 24 24 23 23 23 22 21 21
12 13 13 12 11 10 9 8 9 11 11 12 12 12 13 14 14 13 12 12 14 13 11 11 11 11 11 12 11 12 11 12 12 13 13 13 14 13 12 12 14 14 16 23 24 24 24 24 24 29 28 29 30 35 36 34 33 33 32 32 30 33 33 33 30 29 29 28 27 27 26 26 25 25 25 26 25 24 24 24 23 23 23 23 22
13 13 14 12 12 11 10 9 8 9 11 10 11 12 12 13 12 14 14 13 14 14 14 14 13 13 12 11 12 12 12 13 12 11 12 13 13 14 14 13 13 12 13 12 16 21 21 23 26 26 28 30 32 36 37 35 34 33 33 34 34 33 33 33 32 31 32 31 30 29 27 26 26 27 26 26 24 24 25 25 24 24 24 23 23
15 15 15 13 12 12 10 9 9 8 9 10 10 12 12 13 13 13 15 15 14 14 13 14 13 13 11 11 12 12 12 12 12 12 10 11 11 11 13 13 13 13 13 11 9 11 18 21 24 22 23 25 33 32 34 38 36 36 35 36 34 34 33 33 32 31 31 29 27 27 28 27 27 27 27 26 26 25 25 25 25 25 23 23 23
18 17 16 15 13 13 11 9 7 8 8 9 10 10 11 13 13 13 13 15 16 16 13 12 13 13 12 12 12 12 13 13 11 11 11 11 11 11 11 11 10 12 10 8 7 6 13 20 19 24 23 26 32 32 32 36 35 36 36 35 34 33 32 31 31 30 28 27 27 29 28 28 28 29 27 26 26 26 26 25 26 26 23 22 21
17 16 15 15 14 13 12 10 8 7 8 8 10 10 11 11 14 13 13 14 16 16 14 12 13 12 12 13 13 11 12 12 11 10 11 12 11 11 11 9 10 10 9 8 8 7 7 14 20 16 21 26 31 33 36 37 38 37 37 37 36 35 33 31 31 30 28 28 28 28 27 27 28 27 27 28 29 28 26 25 25 25 23 23 23
15 15 14 14 13 12 11 11 9 8 8 9 9 10 11 11 12 15 14 13 15 18 16 14 14 14 14 15 14 13 11 11 11 11 11 13 12 11 9 9 10 11 10 9 7 7 7 7 9 12 12 27 31 39 36 37 37 35 36 38 37 36 34 32 31 28 30 30 29 29 28 28 28 27 27 29 28 26 25 24 25 25 24 25 24
19 19 17 14 13 13 13 12 10 8 9 10 10 9 11 13 14 13 15 15 14 16 17 15 15 15 15 14 14 14 13 12 12 12 10 9 9 8 10 9 8 9 9 8 9 8 8 7 8 10 11 17 20 27 35 34 32 34 37 38 38 36 34 33 33 31 30 29 31 29 29 30 28 27 28 28 28 27 27 25 25 25 25 26 25
16 17 19 18 15 14 14 12 11 9 9 10 10 10 11 10 11 10 12 14 14 14 17 15 14 12 12 14 13 14 14 13 14 12 11 10 8 9 8 9 8 7 9 8 9 9 7 8 8 8 10 7 11 9 30 32 31 34 39 39 38 38 37 36 34 34 30 31 31 31 31 30 29 29 28 28 28 28 28 27 27 26 24 26 26
15 16 17 16 16 15 14 13 11 11 11 11 9 8 9 10 8 11 7 9 12 13 14 16 12 14 12 10 9 6 9 11 12 11 10 10 10 10 6 9 9 8 7 8 8 10 9 8 8 6 8 8 5 9 4 18 24 33 34 36 38 39 37 37 35 34 32 32 33 31 30 30 29 28 29 30 29 28 27 27 26 26 26 26 25
13 14 14 14 14 14 13 14 14 13 12 11 10 10 8 10 9 9 12 7 9 12 12 12 17 13 12 9 6 9 1 6 6 9 11 10 9 11 9 8 9 7 7 6 7 7 7 8 7 8 7 8 7 8 8 5 13 23 25 30 35 38 39 38 36 36 34 35 32 31 31 30 29 29 30 28 28 28 28 27 27 27 27 26 26
14 16 12 14 15 15 15 14 16 13 12 12 12 12 9 8 8 7 8 12 9 12 10 12 13 14 11 13 11 12 9 10 12 7 6 9 12 11 10 8 8 7 6 8 8 8 8 7 9 9 8 8 9 8 10 9 10 12 15 23 25 33 36 37 37 37 34 34 32 32 32 29 28 29 29 29 28 29 28 28 27 27 26 26 26
14 13 14 17 16 15 15 14 16 15 13 13 13 12 10 7 8 8 6 8 12 10 14 12 16 15 15 7 5 10 12 11 14 7 7 8 7 11 10 11 10 9 8 7 6 7 8 9 9 10 10 8 10 11 10 12 10 10 10 15 21 26 31 36 36 35 34 35 34 34 30 29 31 30 29 30 29 28 28 28 27 26 25 24 25
12 12 13 13 17 17 15 15 14 14 13 13 13 12 10 9 8 7 6 6 8 11 13 14 12 15 19 18 14 13 17 13 17 11 4 5 9 8 9 11 8 9 8 8 9 9 9 11 11 12 13 12 9 9 12 12 13 11 11 9 19 22 29 32 36 34 34 34 33 32 33 32 32 31 31 30 29 29 29 27 27 28 26 26 23
13 12 13 13 15 15 15 15 13 14 13 13 14 14 12 9 7 6 6 5 6 10 13 14 14 13 14 21 19 2 6 15 14 9 8 2 4 10 11 12 11 10 11 11 11 10 9 11 12 13 13 13 12 9 9 14 17 15 14 16 17 19 20 25 30 32 32 31 32 32 32 31 31 30 30 30 30 30 28 28 27 27 27 26 24
12 13 11 13 14 16 18 18 16 13 12 13 15 14 11 8 7 7 6 5 7 9 12 11 10 15 13 17 21 9 10 15 18 21 18 16 10 3 7 11 10 10 11 12 11 11 11 11 13 12 12 14 13 11 9 12 12 13 13 19 20 21 20 22 26 27 27 27 30 31 31 32 31 31 30 29 30 28 28 27 27 26 26 26 25
12 13 12 13 13 16 17 17 17 16 13 13 14 15 14 11 8 7 6 7 7 8 9 11 10 13 12 15 19 14 9 16 14 14 15 16 15 13 10 8 10 10 10 12 12 12 11 12 13 15 11 15 14 13 11 10 11 12 13 21 21 22 23 22 23 22 22 24 28 29 31 31 31 31 31 30 28 28 27 27 27 26 25 24 24
12 10 13 13 15 16 16 15 16 14 13 13 15 16 15 11 10 8 7 8 7 8 10 10 10 12 7 8 12 17 10 9 12 12 9 19 20 16 15 18 14 12 12 13 14 13 12 11 12 12 13 10 12 13 13 12 11 12 16 23 22 22 20 22 22 23 22 24 24 26 29 31 33 32 30 29 29 28 28 27 26 26 25 24 23
12 13 12 13 15 14 13 15 17 14 14 13 13 13 15 13 9 9 8 9 7 8 10 10 10 12 13 11 10 15 16 13 16 16 17 13 14 19 17 18 21 16 11 13 14 14 13 11 12 11 14 15 13 11 12 12 13 15 22 24 25 22 21 21 21 23 22 23 24 23 25 24 26 27 28 30 29 29 27 26 25 24 25 24 23
11 10 11 11 11 13 13 15 15 14 13 11 12 12 13 15 13 8 8 8 8 8 9 11 12 11 13 11 13 13 18 17 15 18 17 18 20 18 17 14 11 5 7 13 12 13 13 13 11 12 13 13 14 16 14 13 12 20 18 22 20 20 22 23 23 22 21 20 21 22 23 22 23 23 26 27 28 28 27 27 26 25 24 24 23
9 10 10 12 12 12 14 12 13 12 14 14 13 12 13 14 15 13 9 8 8 9 8 10 11 10 10 11 12 13 16 20 14 15 12 11 14 17 11 12 12 8 4 8 6 11 14 15 12 11 11 12 13 13 16 15 13 18 19 18 24 22 23 22 21 23 23 19 19 21 23 22 22 23 24 25 28 29 29 27 25 25 25 24 23
13 13 9 13 11 14 14 16 17 18 17 16 14 13 14 15 16 16 11 8 8 9 10 10 11 12 10 11 13 12 17 19 16 13 13 13 14 18 16 9 8 7 3 7 5 10 5 10 12 11 11 13 13 13 14 17 16 24 22 17 20 23 22 23 23 22 24 20 20 20 21 21 22 22 23 26 27 28 28 26 26 24 24 24 24
13 11 11 14 12 14 15 16 16 17 17 15 13 12 13 14 16 15 10 7 8 9 8 9 12 12 11 11 12 13 15 17 19 15 16 17 18 18 20 18 9 7 6 1 6 14 14 7 13 10 12 13 13 14 15 15 19 27 25 18 16 23 22 23 23 23 22 21 20 21 21 21 20 20 21 23 24 23 25 26 26 25 24 24 24
14 10 13 12 14 14 16 16 15 14 17 17 14 11 11 14 15 13 12 8 9 10 9 10 12 12 13 12 12 15 14 17 20 15 16 17 16 18 20 22 21 14 10 10 8 8 9 10 3 10 10 12 12 13 16 18 16 24 25 15 14 17 22 23 24 23 22 21 22 22 21 21 20 20 21 20 20 19 19 20 20 20 20 20 20
12 12 12 11 13 13 14 15 14 14 16 14 13 12 12 11 12 16 14 10 9 10 9 9 9 10 11 13 13 13 14 15 19 16 15 15 15 17 20 22 22 21 16 15 15 13 10 13 13 8 11 11 12 10 14 13 18 20 14 15 17 15 21 24 25 24 23 23 22 22 21 20 21 19 18 17 16 16 18 18 19 18 19 20 18
11 12 11 12 12 14 14 14 14 14 13 14 14 13 12 9 13 15 13 12 11 8 9 9 9 9 11 11 12 13 13 14 18 16 14 16 15 16 17 18 20 23 19 20 15 12 14 9 9 10 5 11 10 11 11 13 18 22 14 12 14 15 22 24 25 24 24 23 22 21 20 20 20 19 18 17 15 17 18 18 19 20 18 16 17
13 10 11 13 10 13 13 15 13 12 14 15 13 13 11 11 12 13 14 13 11 10 9 9 9 9 11 12 12 12 12 14 18 17 15 15 15 16 16 16 17 22 21 18 14 6 11 14 6 9 15 10 11 11 10 10 17 19 15 13 13 19 22 19 22 23 23 23 22 21 20 20 19 19 18 17 17 20 20 20 20 20 18 17 17
12 10 12 11 13 14 12 14 14 13 14 13 12 13 10 11 11 12 14 14 13 11 9 8 8 9 11 13 13 12 12 12 16 16 14 14 16 15 15 16 17 18 19 18 19 16 12 15 12 11 15 15 12 13 11 9 15 20 13 12 15 19 17 15 21 22 22 22 22 21 21 20 19 19 19 18 19 20 20 20 20 19 19 18 19
11 13 13 12 13 13 12 14 13 12 13 13 13 11 11 11 12 12 14 15 13 10 8 10 9 10 11 13 14 14 12 13 15 15 14 16 15 15 15 15 16 16 17 18 18 13 3 3 11 13 14 16 13 14 13 12 12 11 14 12 13 13 14 14 16 23 24 23 22 22 22 21 20 18 19 19 19 20 19 20 20 19 19 20 20
10 13 12 12 11 11 13 14 12 14 11 13 13 14 14 12 12 12 13 15 13 11 9 10 10 9 11 13 13 13 12 14 17 18 15 15 16 15 14 14 11 11 13 15 16 18 14 6 9 9 11 15 15 12 17 15 14 10 12 12 12 13 13 11 13 15 25 24 24 23 21 20 21 21 19 19 19 18 18 19 20 20 19 20 20
12 12 12 11 12 11 13 13 13 11 13 14 15 17 15 14 14 13 13 13 13 12 10 10 10 9 11 11 13 13 11 13 17 18 17 17 16 18 18 15 16 15 13 12 16 17 18 12 12 14 13 13 15 15 14 16 15 14 14 12 12 11 11 11 12 11 21 23 24 23 22 21 19 19 19 19 19 19 19 19 20 21 21 21 20
13 12 12 12 12 14 12 13 11 13 12 12 13 16 16 15 14 14 13 14 13 11 10 10 10 10 10 11 12 12 12 14 17 18 16 17 17 16 18 17 17 16 12 11 16 18 16 16 10 15 14 15 7 9 10 12 15 11 12 8 5 8 7 10 12 10 17 24 23 23 23 21 18 20 20 19 19 20 19 19 20 21 21 22 22
13 12 12 9 12 12 14 16 15 14 12 10 13 17 17 14 15 14 13 13 14 13 12 11 10 11 11 12 12 11 12 14 17 18 17 20 18 17 18 16 16 15 12 12 13 16 18 19 13 6 11 8 6 10 12 12 8 8 7 10 10 10 10 7 6 9 13 22 23 23 23 24 20 18 21 20 19 19 20 20 21 21 22 22 22
18 16 18 16 15 17 17 17 16 16 14 13 15 17 18 17 16 14 13 13 14 14 13 11 10 10 10 11 11 11 12 14 17 17 18 22 19 18 18 16 15 15 14 12 14 15 20 18 18 11 10 12 8 8 10 14 15 12 9 6 5 5 7 6 7 7 4 6 9 12 15 19 22 20 19 19 20 20 20 21 21 22 22 22 23
19 18 17 17 17 17 18 17 17 17 16 16 15 15 17 17 16 15 15 13 15 14 11 11 10 10 10 10 10 11 13 13 17 17 19 20 19 20 19 18 16 16 14 14 14 16 16 17 15 18 14 9 15 14 8 9 15 15 17 13 10 5 6 12 10 4 6 4 6 13 12 11 14 14 17 19 20 21 21 21 21 22 22 23 22
18 18 19 19 18 17 17 17 17 16 16 16 16 16 15 16 15 15 14 14 14 15 14 13 11 10 9 9 10 11 13 15 16 15 19 21 18 20 18 17 17 18 16 14 14 15 15 16 16 15 14 13 4 4 8 9 8 6 9 15 18 14 12 9 9 12 5 8 5 5 9 11 12 15 18 19 21 22 22 22 23 22 23 23 23
16 18 19 20 20 20 19 18 18 16 16 16 13 12 13 15 15 14 14 13 13 14 13 10 10 10 9 8 8 9 13 19 26 22 19 21 20 18 17 17 18 18 16 15 15 15 15 16 14 14 14 13 12 13 14 15 19 21 16 13 11 9 8 8 2 4 10 12 6 6 8 8 8 7 7 6 9 16 18 21 19 24 23 23 23
18 18 19 19 18 19 18 17 16 15 14 13 16 24 21 15 14 13 12 13 12 12 13 13 13 10 9 8 9 13 18 21 23 22 21 24 25 23 21 19 19 19 19 18 17 16 16 17 17 15 16 16 16 19 19 19 15 10 12 13 16 12 10 7 3 1 2 9 11 9 6 6 10 8 8 11 10 14 11 13 12 15 20 24 25
18 18 17 18 17 17 18 17 17 15 14 14 24 24 25 27 20 15 14 13 12 11 12 12 13 12 10 9 8 10 14 18 17 18 18 23 24 25 25 25 23 22 21 20 19 19 18 18 17 18 19 20 19 18 18 14 12 19 19 15 15 15 15 16 15 3 2 8 9 9 7 4 7 11 9 9 10 9 10 13 18 22 24 24 24
17 16 17 18 17 17 15 16 16 16 15 20 25 25 26 26 24 18 14 12 10 11 12 13 12 11 12 11 9 8 10 13 15 15 14 22 21 23 26 25 24 26 27 23 21 18 19 18 18 20 19 20 20 17 16 16 16 14 14 15 17 19 17 16 13 13 8 10 11 9 7 3 4 9 10 10 10 11 13 16 22 23 23 23 23
16 17 17 17 17 16 17 17 17 17 16 22 26 27 26 26 26 22 15 15 13 12 12 12 12 11 10 10 10 9 9 15 14 13 11 16 24 27 25 28 29 28 26 28 28 24 18 19 21 20 19 19 20 18 19 20 17 17 15 14 14 15 15 15 13 10 10 11 11 10 11 6 6 9 9 9 9 10 12 15 21 22 23 23 24
16 16 16 18 17 17 16 17 16 16 17 21 25 25 25 25 25 23 15 14 14 13 12 12 12 12 11 10 10 11 10 10 11 13 12 13 16 20 20 20 19 25 27 27 28 29 26 20 20 20 16 16 20 20 16 17 20 20 20 19 17 16 15 15 10 10 10 10 14 10 6 6 6 9 11 8 5 7 9 14 20 22 24 25 24
17 16 15 15 16 16 16 15 15 17 16 25 25 26 25 25 25 21 15 13 11 11 11 12 13 13 12 11 10 10 11 11 11 13 12 12 14 16 16 18 20 20 20 21 21 20 20 19 23 24 22 19 19 19 18 18 22 20 20 21 19 15 10 10 9 7 9 11 9 11 13 10 6 9 9 7 6 6 4 9 18 21 22 23 23
15 14 14 14 15 15 16 16 15 17 18 27 26 26 26 25 26 16 14 13 12 11 11 12 13 13 12 11 10 11 12 12 12 16 17 12 12 16 18 16 16 17 18 20 24 23 23 20 21 21 21 23 24 24 23 21 18 14 9 9 10 12 14 13 12 9 12 7 4 10 6 8 8 10 6 4 6 7 5 5 12 18 19 20 22
15 14 14 13 13 14 15 16 16 16 16 22 25 25 24 25 20 13 14 11 11 12 11 10 11 12 12 11 11 11 12 12 12 17 20 17 12 17 17 16 15 15 15 15 20 23 23 23 23 25 27 27 28 30 32 31 22 17 15 17 17 16 16 15 11 11 12 11 8 5 6 10 8 7 6 3 6 6 6 6 6 14 18 19 20
15 15 14 15 14 13 15 16 15 15 16 20 26 25 24 24 21 15 12 12 11 11 9 10 11 12 13 17 14 12 12 11 14 17 20 14 15 17 18 18 17 17 15 13 11 12 17 18 22 24 26 28 29 29 28 26 26 24 21 22 21 17 17 17 16 13 8 10 10 7 8 7 9 6 7 4 3 0 5 5 6 7 14 15 19
14 14 14 13 14 12 13 15 22 20 16 19 25 24 25 24 20 14 13 9 10 10 10 10 10 11 11 13 18 16 12 13 17 18 20 15 15 18 19 19 19 20 18 17 16 14 9 6 6 12 16 22 22 21 21 28 26 24 23 21 16 18 19 16 12 10 7 9 11 10 11 8 13 10 11 7 5 1 0 4 6 7 8 9 12
Wind_Direction
327 328 326 324 321 326 326 321 317 315 313 306 299 292 278 265 251 246 241 233 231 233 230 229 224 222 222 220 214 212 212 214 213 212 214 213 213 216 214 215 215 212 211 211 214 217 207 206 204 199 194 192 184 183 178 181 176 171 170 171 170 168 163 160 157 158 159 153 152 153 154 156 156 155 155 156 156 154 151 150 146 146 148 147 146
318 320 323 320 320 321 322 319 318 315 312 307 305 298 294 285 267 248 235 233 230 229 226 229 225 221 220 221 217 212 209 210 212 210 212 213 215 215 212 213 218 219 216 214 216 217 212 206 210 209 198 189 193 187 175 175 174 171 171 173 174 167 163 159 158 161 160 155 154 153 155 156 152 153 156 157 157 155 153 150 148 149 149 149 147
313 314 311 312 315 317 316 319 317 317 313 308 306 300 295 287 281 272 260 251 240 229 223 228 227 223 219 219 219 213 210 209 212 209 210 214 215 212 205 206 219 222 225 221 220 218 214 209 205 204 202 198 192 188 178 174 174 176 175 174 170 164 162 160 160 164 161 156 152 152 155 153 153 155 158 159 159 156 153 151 148 148 148 147 144
307 309 310 308 303 306 311 315 314 314 312 310 309 305 297 290 283 277 262 245 237 237 226 224 226 224 217 215 214 216 213 209 211 210 211 212 212 207 198 206 215 220 226 228 225 223 213 208 211 211 202 199 194 185 178 173 173 172 172 169 170 165 162 160 161 161 158 155 153 156 156 152 153 158 160 160 159 157 152 150 150 151 150 147 144
306 304 303 302 300 298 300 304 308 308 311 310 309 306 302 297 288 274 266 259 250 244 238 228 227 223 217 215 211 214 213 214 212 212 214 211 210 208 202 203 212 221 224 226 228 221 210 202 208 210 206 203 193 187 179 176 173 171 172 171 168 163 161 161 162 163 159 158 156 154 152 151 155 158 159 158 159 156 155 154 153 152 150 147 145
308 305 302 296 293 292 292 294 298 305 306 309 307 307 302 298 294 286 269 256 248 240 232 232 229 223 218 215 210 211 209 214 216 214 211 211 206 203 202 192 201 209 219 224 223 218 204 198 209 208 203 194 192 186 180 177 175 173 170 169 167 164 163 162 162 165 162 159 153 151 151 153 156 160 159 161 159 157 156 157 155 153 151 149 146
309 304 298 293 289 288 287 287 289 296 303 304 305 304 301 298 300 294 280 260 249 240 229 227 223 219 216 210 211 208 206 211 210 212 207 208 204 199 197 194 195 200 207 209 218 218 202 196 206 215 199 198 195 184 178 179 176 173 172 169 168 164 165 162 164 164 165 161 157 156 154 156 159 162 161 161 158 159 159 158 156 153 153 148 145
312 308 300 293 288 284 280 281 286 289 294 301 303 302 302 298 296 296 294 275 254 244 229 227 223 221 217 212 212 205 208 207 204 204 205 201 200 201 195 193 189 193 196 198 200 202 198 201 211 211 200 204 190 181 180 177 175 173 172 167 167 165 163 163 165 165 165 160 156 156 158 160 162 163 163 159 157 160 161 159 157 154 149 147 144
309 305 298 293 287 282 282 276 275 283 288 295 296 298 299 300 297 296 289 286 267 245 234 227 224 222 212 211 208 205 205 204 202 199 195 200 201 195 195 192 187 183 185 185 192 195 194 195 209 209 205 194 192 186 182 179 176 175 171 169 166 164 163 164 166 167 163 162 159 158 159 164 163 163 163 164 161 162 162 159 159 157 150 147 148
304 300 295 289 285 281 279 279 273 273 281 286 291 294 296 296 299 299 300 294 282 259 240 227 222 219 213 209 207 202 205 202 198 191 192 196 195 194 194 187 178 180 183 180 178 185 184 201 209 224 208 195 191 190 184 179 176 172 171 169 167 164 164 165 166 166 163 160 159 160 161 163 160 160 163 165 165 165 160 161 162 158 154 152 154
309 306 300 295 290 284 282 277 273 271 274 281 288 292 292 294 295 298 296 293 292 281 250 229 225 217 211 207 200 201 199 198 192 191 192 190 188 192 186 186 189 179 176 168 168 176 182 180 198 202 217 218 205 185 181 176 174 171 169 168 165 164 164 165 167 163 163 162 161 163 163 163 163 163 164 165 164 160 159 164 163 157 155 157 156
322 313 305 299 293 288 283 280 273 266 273 281 283 287 294 298 296 297 299 299 294 287 266 235 225 217 209 204 200 194 194 189 190 190 183 176 178 175 185 176 181 170 170 169 160 169 176 175 177 202 204 206 220 201 175 174 172 169 170 168 164 163 160 163 166 164 163 162 164 163 163 164 164 164 165 164 162 162 163 164 162 159 159 159 157
316 318 312 309 304 297 290 282 273 267 267 271 273 277 285 286 290 288 296 301 300 295 284 251 225 216 209 201 199 196 189 186 185 184 182 177 169 175 180 171 171 176 165 165 160 158 166 170 178 176 191 186 183 231 183 170 169 169 168 164 162 161 161 165 165 165 161 164 165 164 163 166 167 167 166 163 162 163 164 164 162 161 160 160 158
314 310 306 302 302 301 294 286 280 275 272 268 269 267 277 286 288 292 271 284 287 286 294 294 241 209 196 202 195 192 194 186 181 179 177 172 167 168 189 164 171 168 161 167 160 155 162 168 165 181 179 171 192 133 206 163 168 169 169 166 164 162 162 166 165 164 162 165 165 164 166 166 167 168 168 164 163 164 163 163 162 161 162 161 159
310 307 301 298 297 299 298 295 286 281 278 271 266 270 264 278 282 280 297 273 272 281 280 281 279 237 203 165 192 158 160 200 207 194 179 173 167 170 174 177 160 162 157 155 150 147 153 158 165 160 175 161 152 145 150 161 163 166 170 167 166 165 164 166 166 164 164 165 166 166 165 166 167 167 166 166 165 164 163 163 163 162 160 159 159
308 304 303 310 311 306 303 297 292 283 273 273 271 268 264 265 273 266 274 295 296 294 284 280 281 275 216 199 179 183 177 202 188 201 205 179 171 172 163 165 158 159 156 156 159 150 151 162 161 161 160 156 146 144 149 148 150 173 173 165 167 164 165 166 165 163 165 165 164 163 164 166 168 167 167 168 167 165 165 163 162 162 160 161 161
299 305 312 310 306 301 298 295 294 288 279 271 268 263 259 250 260 268 259 278 292 292 291 283 279 281 269 203 185 193 198 188 174 189 190 193 202 170 171 166 166 162 161 159 142 150 149 160 161 157 150 155 150 149 149 140 145 150 163 170 174 167 163 165 164 162 166 163 162 164 164 167 168 168 169 168 167 167 165 164 164 164 162 162 163
302 303 305 305 302 299 296 299 297 295 288 276 268 264 260 254 240 244 259 255 272 288 288 286 277 280 284 266 195 188 182 181 169 189 188 207 176 185 173 169 173 167 158 150 155 153 160 160 161 159 156 151 147 151 147 147 147 154 158 170 181 168 163 164 163 163 163 162 164 166 167 170 171 170 170 169 168 168 166 165 164 163 163 164 165
304 305 304 302 301 301 299 295 294 291 290 283 273 265 260 247 230 225 235 248 263 277 280 287 299 283 277 282 261 314 198 154 183 96 153 220 220 178 179 175 173 175 163 165 161 158 163 159 163 161 155 147 144 149 153 147 150 148 150 152 162 168 165 162 163 160 164 166 167 168 170 172 171 171 171 170 169 168 166 165 164 165 165 165 166
302 303 304 307 306 306 307 303 299 297 296 287 280 269 259 244 229 225 219 215 247 262 277 279 279 287 285 284 280 268 175 181 174 169 168 169 194 232 177 176 172 181 171 163 164 164 162 166 160 162 153 150 145 146 155 144 145 147 147 149 159 159 158 159 160 163 165 168 170 171 172 172 172 171 171 171 170 168 167 166 166 165 165 166 168
299 303 305 305 303 300 298 297 295 297 297 295 288 275 257 243 230 225 214 218 221 249 262 271 268 269 295 288 289 267 201 182 188 186 170 161 175 172 166 166 177 187 177 169 169 166 169 168 166 155 158 150 146 148 149 147 147 147 149 152 161 162 166 170 165 163 164 168 171 174 175 173 172 170 171 172 171 169 168 166 167 167 166 168 170
300 296 303 304 301 298 297 296 293 292 296 296 297 286 266 245 235 222 221 224 219 234 248 262 267 273 260 282 288 289 240 182 179 180 181 177 169 178 169 163 176 195 177 173 170 168 168 170 165 160 152 150 146 148 149 148 149 151 157 157 163 169 170 165 164 156 167 170 174 177 176 174 172 171 172 172 171 168 167 168 169 167 166 168 171
302 302 299 298 296 296 297 299 296 291 290 295 299 301 293 274 245 228 219 224 219 229 242 252 259 267 270 264 268 275 275 203 180 183 175 176 177 177 174 177 176 169 182 170 170 168 165 176 168 167 159 158 152 149 146 148 150 153 157 161 166 167 161 160 161 161 170 172 178 177 178 176 175 172 172 172 170 168 169 169 168 167 169 172 174
297 295 296 297 297 295 296 295 294 290 286 292 294 294 293 286 269 241 229 230 226 226 239 251 253 258 263 263 263 269 273 255 202 181 181 177 173 175 177 170 165 151 161 163 169 164 163 173 177 167 163 159 160 153 153 146 154 153 157 161 164 162 158 163 165 165 173 177 178 179 181 176 176 175 175 173 172 168 169 169 169 170 173 174 177
293 294 294 299 299 293 296 294 289 293 308 303 293 293 296 292 279 255 234 229 230 229 234 245 250 252 263 264 266 267 271 271 237 194 179 169 168 160 170 165 162 145 139 158 160 168 169 172 177 170 160 163 160 157 152 153 155 162 161 166 166 166 162 166 168 167 174 182 181 182 179 179 176 175 178 176 174 170 170 170 171 175 176 176 175
297 294 296 296 292 292 289 289 296 303 297 292 295 300 300 296 284 263 244 234 237 236 240 247 252 254 251 265 266 266 270 272 248 201 181 163 165 164 153 161 154 144 116 156 149 152 187 176 171 171 164 165 161 160 160 154 160 162 163 165 169 168 168 168 169 171 176 180 184 182 178 179 178 181 179 179 176 173 172 173 174 174 174 173 171
289 292 294 294 290 288 290 292 294 293 292 293 298 298 300 298 291 266 248 234 233 242 242 244 252 254 254 255 266 266 267 270 260 214 181 179 170 167 158 154 142 143 144 144 161 180 164 174 171 173 170 166 165 163 162 159 163 165 163 166 170 170 168 169 167 173 178 178 182 181 178 178 180 181 180 182 179 177 175 174 175 173 170 170 168
288 290 291 292 291 288 289 287 288 289 295 294 292 294 295 295 293 277 255 231 237 239 242 243 250 253 255 256 259 262 264 267 263 225 194 183 175 169 166 159 154 158 162 170 178 189 160 150 156 174 173 168 169 166 160 159 162 168 162 164 167 171 170 169 169 174 178 179 181 181 176 177 180 184 186 183 180 178 174 173 171 170 168 163 164
286 287 291 287 286 287 288 290 288 286 284 285 289 286 288 287 288 287 264 247 234 239 243 244 248 251 252 253 256 262 265 268 265 233 197 184 178 175 172 167 163 158 164 171 186 169 187 176 156 187 176 171 161 165 158 162 163 163 172 166 168 172 172 170 171 175 179 179 181 179 176 177 180 184 184 181 177 173 172 171 165 167 166 171 168
281 287 284 285 285 286 284 282 282 278 282 289 289 282 282 284 287 285 273 255 247 238 242 247 246 250 253 253 253 259 261 263 266 239 205 181 176 180 179 173 166 162 164 171 179 178 165 190 169 152 182 169 162 162 164 160 161 162 165 164 166 168 171 171 171 175 178 178 179 179 176 176 177 178 178 178 176 171 172 167 162 167 172 167 161
281 282 282 283 281 283 282 282 283 291 291 284 280 281 284 286 285 283 276 261 251 249 245 246 250 253 258 260 257 260 260 263 266 244 205 180 180 177 182 173 177 167 166 166 158 187 168 168 180 167 158 164 161 157 157 159 163 163 160 163 168 165 165 170 172 174 176 176 177 178 177 176 175 175 177 178 177 173 173 170 170 170 165 163 162
282 278 280 280 282 283 285 286 285 282 281 281 281 284 283 277 282 281 277 267 256 252 256 252 258 259 259 260 259 259 261 262 262 240 210 185 174 177 179 176 179 175 164 164 166 166 184 170 160 161 159 153 159 155 155 160 166 163 159 162 167 161 164 170 174 174 176 176 177 177 177 178 177 176 180 179 180 177 178 173 170 167 163 161 160
283 281 280 280 281 280 279 280 280 285 292 292 291 286 283 282 280 282 286 276 260 258 258 263 259 261 262 263 265 262 261 263 260 236 207 180 176 176 177 181 178 170 169 166 162 145 93 106 149 160 162 151 158 161 150 153 161 166 162 162 162 163 169 172 175 176 176 176 176 176 179 181 176 179 181 185 183 184 183 170 166 165 161 159 159
279 281 279 281 278 276 280 281 283 288 288 291 291 286 282 281 283 288 289 283 270 260 258 262 262 261 267 267 268 270 266 266 260 231 198 182 171 174 176 173 171 168 173 163 154 152 151 126 133 139 152 164 156 167 155 156 163 158 163 164 167 166 167 168 173 178 177 176 176 176 176 178 179 185 184 186 185 185 180 169 165 162 159 158 158
285 282 281 276 276 278 277 277 278 279 279 280 280 279 278 279 281 283 285 286 276 261 259 258 260 263 267 270 271 274 275 273 262 223 198 180 173 174 176 173 170 177 179 166 154 155 149 152 151 153 160 171 165 170 169 161 159 162 161 166 167 167 163 165 170 174 178 177 176 176 175 176 178 180 181 181 181 180 175 168 164 161 160 157 157
291 285 280 280 279 277 274 271 266 269 269 270 275 280 282 282 282 282 285 287 282 267 260 259 260 262 264 270 271 274 277 279 263 216 196 177 174 177 176 175 172 173 172 166 165 153 155 141 168 161 166 160 165 159 153 147 149 158 164 146 139 155 161 167 168 170 181 177 177 178 178 178 182 180 179 177 178 174 170 166 163 162 160 158 159
294 293 289 282 278 279 282 283 282 278 273 279 287 287 285 284 282 280 278 279 280 277 266 257 259 262 265 267 273 274 280 281 266 213 189 179 177 175 176 174 170 165 166 165 165 156 151 154 150 153 154 139 132 147 147 138 134 128 118 149 168 169 167 173 158 163 177 182 178 179 180 176 178 184 176 174 174 170 168 166 165 164 162 161 162
299 296 296 297 294 290 288 287 285 285 286 283 279 278 280 281 279 275 276 278 279 276 267 258 259 260 264 271 279 280 284 281 267 214 190 178 177 175 174 171 164 161 158 159 158 165 155 153 148 142 156 147 134 154 170 155 149 141 121 100 118 144 145 159 173 160 157 179 173 185 184 179 178 178 176 173 172 171 169 168 167 165 163 163 164
299 297 295 294 290 288 286 284 282 282 281 277 272 270 273 274 274 276 278 277 278 275 260 261 263 264 268 278 284 287 286 281 274 219 190 179 176 177 173 168 160 158 156 157 160 160 153 148 154 153 157 164 157 159 172 168 161 159 155 148 163 173 171 174 165 162 152 160 203 173 173 179 177 175 175 174 175 174 171 170 169 167 166 165 166
300 297 296 294 292 288 285 283 280 280 278 277 274 271 270 272 273 271 270 273 276 280 279 268 262 262 268 274 281 286 288 286 282 237 198 178 180 175 175 166 161 158 157 157 157 157 153 153 155 157 155 149 118 87 121 122 132 132 165 164 171 173 177 177 179 155 165 154 158 184 174 178 172 174 173 178 178 177 173 171 170 169 168 168 167
296 294 292 290 289 287 283 279 279 277 275 272 269 266 265 265 264 262 263 266 268 272 278 274 265 265 264 266 275 282 285 289 286 279 223 186 175 174 170 166 163 159 156 159 159 159 157 153 154 155 153 153 150 144 155 166 178 178 174 164 164 157 150 138 131 157 164 162 173 172 169 170 155 162 159 166 183 177 174 171 173 171 171 170 169
296 292 288 286 283 283 284 281 278 276 273 270 265 265 267 268 264 263 262 261 262 265 270 276 274 265 260 263 272 278 285 286 287 284 245 201 178 172 168 169 165 162 161 161 162 162 157 157 157 158 159 166 167 172 177 183 171 139 145 161 157 159 146 143 111 271 187 153 156 175 178 178 157 161 165 174 180 177 177 174 173 172 174 173 172
293 289 285 286 284 282 283 283 279 275 271 268 269 271 272 272 273 265 255 258 258 259 261 264 271 272 271 269 272 281 288 289 290 286 246 212 184 171 169 167 167 165 163 163 164 162 162 162 162 165 170 172 178 176 176 161 160 170 173 167 157 156 165 165 177 190 240 160 157 155 166 199 160 162 175 175 172 176 176 179 176 177 178 175 172
293 293 290 286 283 281 278 279 278 275 272 268 267 267 267 269 267 267 269 265 260 260 261 261 261 265 270 272 272 275 281 286 296 294 253 212 188 174 168 166 170 171 168 166 163 165 164 160 165 174 172 175 172 172 171 166 170 168 167 163 165 168 172 179 172 176 176 165 150 157 162 190 178 164 171 184 175 176 182 181 180 178 177 175 173
290 287 282 283 285 284 281 278 278 275 271 268 267 267 267 267 266 262 259 259 258 255 254 257 260 262 263 266 274 273 278 286 293 287 262 215 188 176 174 171 171 174 176 172 167 166 167 164 170 174 177 170 167 178 177 173 160 162 165 170 170 172 172 174 171 151 153 174 149 154 169 187 168 169 178 184 178 178 183 185 179 177 178 176 174
286 283 281 275 275 278 278 275 275 275 272 271 269 267 266 265 264 262 256 249 247 250 255 257 260 259 258 260 267 275 279 283 285 290 262 217 196 178 174 172 175 176 176 178 176 168 164 167 167 172 181 170 175 174 170 157 161 172 171 176 172 170 174 175 155 151 157 167 165 152 149 176 190 171 185 179 161 173 181 182 180 179 179 178 177
291 282 281 281 275 272 272 273 272 271 270 270 269 268 267 267 266 262 256 252 248 248 251 256 256 256 253 252 254 263 273 277 278 288 268 223 196 177 172 177 176 178 179 180 179 174 174 173 173 173 169 177 174 162 162 174 176 177 176 170 169 161 128 85 73 114 161 190 165 151 178 179 173 175 187 162 161 165 160 183 181 182 183 180 177
283 274 272 267 265 269 271 270 269 268 267 269 270 268 266 265 264 262 258 249 246 245 247 249 251 250 250 245 249 253 259 265 273 279 273 233 190 175 170 178 181 179 183 186 181 181 179 178 178 172 171 173 164 166 171 174 175 166 138 99 100 119 134 149 155 160 175 203 214 174 137 164 178 180 157 128 143 159 163 178 188 184 185 182 180
283 285 276 272 272 269 265 261 260 266 267 269 271 269 266 265 263 255 255 253 247 246 241 244 248 248 243 239 237 248 250 259 265 272 277 235 191 179 171 174 178 179 190 187 186 184 184 178 175 170 167 162 165 171 172 171 163 147 137 143 159 162 159 159 161 159 185 177 207 187 139 156 168 166 123 131 163 159 166 180 185 188 187 185 183
287 285 282 281 275 264 260 262 259 260 260 265 269 267 263 262 259 256 247 244 245 247 250 246 249 249 242 233 230 235 244 249 262 266 275 241 195 183 171 172 180 184 185 178 175 191 195 185 173 166 162 162 164 167 170 167 157 151 157 171 172 163 168 171 170 178 151 174 192 157 137 167 149 144 113 87 87 351 181 179 177 187 189 190 190
284 286 282 274 273 266 258 250 255 258 260 265 267 266 262 259 256 255 257 249 248 245 247 247 236 242 242 236 229 229 233 248 254 261 267 248 203 183 173 172 182 186 185 173 174 168 157 130 153 158 163 164 161 160 165 165 165 171 175 169 159 167 172 175 156 133 141 211 195 168 158 146 159 176 147 122 177 222 166 187 180 185 186 184 190